Orbital Elements at Epoch 2459200.5 (2020-Dec-17.0) TDB
Reference: JPL 22 (heliocentric ecliptic J2000)
Element | Value | Uncertainty (1-sigma) | Units |
e | .1428784526158288 | 4.3686e-08 | |
a | 2.339007901403247 | 1.4047e-08 | au |
q | 2.004814071794554 | 1.002e-07 | au |
i | 7.582272563226629 | 5.809e-06 | deg |
node | 61.89318412917726 | 3.5669e-05 | deg |
peri | 263.0661139845918 | 4.2198e-05 | deg |
M | 111.5557946337718 | 2.5933e-05 | deg |
tp | 2458795.611358436011 (2019-Nov-08.11135844) | 9.2416e-05 | TDB |
period | 1306.609947439784 3.58 | 1.177e-05 3.222e-08 | d yr |
n | .2755221638296848 | 2.482e-09 | deg/d |
Q | 2.67320173101194 | 1.6054e-08 | au |
|
| | Orbit Determination Parameters
Additional Information
|